Year,Month,Day,Hour,Minute,Value (Times are PST for temperature in C)
2012,10,02,00,00,13.40
2012,10,02,00,01,13.40
2012,10,02,00,02,13.40
2012,10,02,00,03,13.40
2012,10,02,00,04,13.40
2012,10,02,00,05,13.30
2012,10,02,00,06,13.30
2012,10,02,00,07,13.30
2012,10,02,00,08,13.30
2012,10,02,00,09,13.30
2012,10,02,00,10,13.30
2012,10,02,00,11,13.30
2012,10,02,00,12,13.30
2012,10,02,00,13,13.30
2012,10,02,00,14,13.30
2012,10,02,00,15,13.30
2012,10,02,00,16,13.30
2012,10,02,00,17,13.30
2012,10,02,00,18,13.20
2012,10,02,00,19,13.20
2012,10,02,00,20,13.30
2012,10,02,00,21,13.30
2012,10,02,00,22,13.30
2012,10,02,00,23,13.20
2012,10,02,00,24,13.20
2012,10,02,00,25,13.20
2012,10,02,00,26,13.20
2012,10,02,00,27,13.20
2012,10,02,00,28,13.20
2012,10,02,00,29,13.20
2012,10,02,00,30,13.10
2012,10,02,00,31,13.10
2012,10,02,00,32,13.10
2012,10,02,00,33,13.10
2012,10,02,00,34,13.10
2012,10,02,00,35,13.00
2012,10,02,00,36,13.00
2012,10,02,00,37,13.00
2012,10,02,00,38,12.90
2012,10,02,00,39,12.90
2012,10,02,00,40,12.90
2012,10,02,00,41,12.90
2012,10,02,00,42,12.90
2012,10,02,00,43,12.90
2012,10,02,00,44,12.90
2012,10,02,00,45,12.90
2012,10,02,00,46,12.90
2012,10,02,00,47,12.90
2012,10,02,00,48,12.90
2012,10,02,00,49,12.90
2012,10,02,00,50,12.80
2012,10,02,00,51,12.80
2012,10,02,00,52,12.80
2012,10,02,00,53,12.80
2012,10,02,00,54,12.80
2012,10,02,00,55,12.80
2012,10,02,00,56,12.80
2012,10,02,00,57,12.80
2012,10,02,00,58,12.80
2012,10,02,00,59,12.80
2012,10,02,01,00,12.70
2012,10,02,01,01,12.70
2012,10,02,01,02,12.70
2012,10,02,01,03,12.70
2012,10,02,01,04,12.70
2012,10,02,01,05,12.70
2012,10,02,01,06,12.70
2012,10,02,01,07,12.70
2012,10,02,03,35,11.90
2012,10,02,03,36,11.90
2012,10,02,03,37,11.90
2012,10,02,03,38,11.90
2012,10,02,03,39,11.90
2012,10,02,03,40,11.90
2012,10,02,03,41,11.80
2012,10,02,03,42,11.80
2012,10,02,03,43,11.80
2012,10,02,03,44,11.80
2012,10,02,03,45,11.80
2012,10,02,03,46,11.80
2012,10,02,03,47,11.80
2012,10,02,03,48,11.80
2012,10,02,03,49,11.80
2012,10,02,03,50,11.80
2012,10,02,03,51,11.80
2012,10,02,03,52,11.70
2012,10,02,03,53,11.70
2012,10,02,03,54,11.70
2012,10,02,03,55,11.70
2012,10,02,03,56,11.70
2012,10,02,03,57,11.70
2012,10,02,03,58,11.60
2012,10,02,03,59,11.70
2012,10,02,04,00,11.70
2012,10,02,04,01,11.70
2012,10,02,04,02,11.70
2012,10,02,04,03,11.70
2012,10,02,04,04,11.70
2012,10,02,04,05,11.70
2012,10,02,04,06,11.70
2012,10,02,04,07,11.70
2012,10,02,04,08,11.70
2012,10,02,04,09,11.70
2012,10,02,04,10,11.70
2012,10,02,04,11,11.70
2012,10,02,04,12,11.70
2012,10,02,04,13,11.60
2012,10,02,04,14,11.60
2012,10,02,04,15,11.60
2012,10,02,04,16,11.60
2012,10,02,04,17,11.60
2012,10,02,04,18,11.60
2012,10,02,04,19,11.60
2012,10,02,04,20,11.60
2012,10,02,04,21,11.60
2012,10,02,04,22,11.60
2012,10,02,04,23,11.60
2012,10,02,04,24,11.60
2012,10,02,04,25,11.60
2012,10,02,04,26,11.60
2012,10,02,04,27,11.50
2012,10,02,04,28,11.50
2012,10,02,04,29,11.50
2012,10,02,04,30,11.60
2012,10,02,04,31,11.60
2012,10,02,04,32,11.60
2012,10,02,04,33,11.60
2012,10,02,04,34,11.50
2012,10,02,04,35,11.50
2012,10,02,04,36,11.50
2012,10,02,04,37,11.40
2012,10,02,04,38,11.40
2012,10,02,04,39,11.40
2012,10,02,04,40,11.40
2012,10,02,04,41,11.40
2012,10,02,04,42,11.40
2012,10,02,04,43,11.50
2012,10,02,04,44,11.50
2012,10,02,04,45,11.50
2012,10,02,04,46,11.50
2012,10,02,04,47,11.50
2012,10,02,04,48,11.50
2012,10,02,04,49,11.40
2012,10,02,04,50,11.40
2012,10,02,04,51,11.40
2012,10,02,04,52,11.40
2012,10,02,04,53,11.40
2012,10,02,04,54,11.40
2012,10,02,04,55,11.50
2012,10,02,04,56,11.50
2012,10,02,04,57,11.50
2012,10,02,04,58,11.50
2012,10,02,04,59,11.50
2012,10,02,05,00,11.50
2012,10,02,05,01,11.50
2012,10,02,05,02,11.50
2012,10,02,05,03,11.50
2012,10,02,05,04,11.60
2012,10,02,05,05,11.60
2012,10,02,05,06,11.60
2012,10,02,05,07,11.60
2012,10,02,05,08,11.60
2012,10,02,05,09,11.60
2012,10,02,05,10,11.60
2012,10,02,05,11,11.70
2012,10,02,05,12,11.70
2012,10,02,05,13,11.70
2012,10,02,05,14,11.70
2012,10,02,05,15,11.70
2012,10,02,05,16,11.70
2012,10,02,05,17,11.70
2012,10,02,05,18,11.70
2012,10,02,05,19,11.70
2012,10,02,05,20,11.70
2012,10,02,05,21,11.70
2012,10,02,05,22,11.70
2012,10,02,05,23,11.70
2012,10,02,05,24,11.80
2012,10,02,05,25,11.80
2012,10,02,05,26,11.80
2012,10,02,05,27,11.80
2012,10,02,05,28,11.70
2012,10,02,05,29,11.70
2012,10,02,05,30,11.70
2012,10,02,05,31,11.70
2012,10,02,05,32,11.70
2012,10,02,05,33,11.80
2012,10,02,05,34,11.80
2012,10,02,05,35,11.80
2012,10,02,05,36,11.80
2012,10,02,05,37,11.80
2012,10,02,05,38,11.80
2012,10,02,05,39,11.70
2012,10,02,05,40,11.70
2012,10,02,05,41,11.70
2012,10,02,05,42,11.70
2012,10,02,05,43,11.70
2012,10,02,05,44,11.60
2012,10,02,05,45,11.60
2012,10,02,05,46,11.60
2012,10,02,05,47,11.60
2012,10,02,05,48,11.50
2012,10,02,05,49,11.50
2012,10,02,05,50,11.50
2012,10,02,05,51,11.50
2012,10,02,05,52,11.50
2012,10,02,05,53,11.50
2012,10,02,05,54,11.50
2012,10,02,05,55,11.50
2012,10,02,05,56,11.50
2012,10,02,05,57,11.40
2012,10,02,05,58,11.50
2012,10,02,05,59,11.40
2012,10,02,06,00,11.40
2012,10,02,06,01,11.40
2012,10,02,06,02,11.40
2012,10,02,06,03,11.40
2012,10,02,06,04,11.40
2012,10,02,06,05,11.40
2012,10,02,06,06,11.40
2012,10,02,06,07,11.40
2012,10,02,06,08,11.30
2012,10,02,06,09,11.30
2012,10,02,06,10,11.30
2012,10,02,06,11,11.40
2012,10,02,06,12,11.40
2012,10,02,06,13,11.40
2012,10,02,06,14,11.40
2012,10,02,06,15,11.40
2012,10,02,06,16,11.40
2012,10,02,06,17,11.40
2012,10,02,06,18,11.40
2012,10,02,06,19,11.40
2012,10,02,06,20,11.30
2012,10,02,06,21,11.30
2012,10,02,06,22,11.40
2012,10,02,06,23,11.40
2012,10,02,06,24,11.30
2012,10,02,06,25,11.30
2012,10,02,06,26,11.30
2012,10,02,06,27,11.30
2012,10,02,06,28,11.30
2012,10,02,06,29,11.20
2012,10,02,06,30,11.20
2012,10,02,06,31,11.20
2012,10,02,06,32,11.20
2012,10,02,06,33,11.20
2012,10,02,06,34,11.20
2012,10,02,06,35,11.20
2012,10,02,06,36,11.10
2012,10,02,06,37,11.10
2012,10,02,06,38,11.10
2012,10,02,06,39,11.00
2012,10,02,06,40,11.00
2012,10,02,06,41,10.90
2012,10,02,06,42,10.90
2012,10,02,06,43,10.90
2012,10,02,06,44,10.80
2012,10,02,06,45,10.80
2012,10,02,06,46,10.80
2012,10,02,06,47,10.80
2012,10,02,06,48,10.70
2012,10,02,06,49,10.70
2012,10,02,06,50,10.70
2012,10,02,06,51,10.70
2012,10,02,06,52,10.60
2012,10,02,06,53,10.60
2012,10,02,06,54,10.60
2012,10,02,06,55,10.60
2012,10,02,06,56,10.50
2012,10,02,06,57,10.50
2012,10,02,06,58,10.40
2012,10,02,06,59,10.40
2012,10,02,07,00,10.30
2012,10,02,07,01,10.30
2012,10,02,07,02,10.20
2012,10,02,07,03,10.20
2012,10,02,07,04,10.10
2012,10,02,07,05,10.10
2012,10,02,07,06,10.10
2012,10,02,07,07,10.00
2012,10,02,07,08,10.00
2012,10,02,07,09,9.90
2012,10,02,07,10,9.90
2012,10,02,07,11,9.90
2012,10,02,07,12,9.90
2012,10,02,07,13,9.90
2012,10,02,07,14,10.00
2012,10,02,07,15,10.00
2012,10,02,07,16,10.00
2012,10,02,07,17,10.10
2012,10,02,07,18,10.10
2012,10,02,07,19,10.20
2012,10,02,07,20,10.20
2012,10,02,07,21,10.20
2012,10,02,07,22,10.30
2012,10,02,07,23,10.30
2012,10,02,07,24,10.30
2012,10,02,07,25,10.40
2012,10,02,07,26,10.40
2012,10,02,07,27,10.40
2012,10,02,07,28,10.40
2012,10,02,07,29,10.50
2012,10,02,07,30,10.50
2012,10,02,07,31,10.50
2012,10,02,07,32,10.50
2012,10,02,07,33,10.50
2012,10,02,07,34,10.50
2012,10,02,07,35,10.60
2012,10,02,07,36,10.60
2012,10,02,07,37,10.60
2012,10,02,07,38,10.60
2012,10,02,07,39,10.60
2012,10,02,07,40,10.60
2012,10,02,07,41,10.60
2012,10,02,07,42,10.70
2012,10,02,07,43,10.70
2012,10,02,07,44,10.70
2012,10,02,07,45,10.70
2012,10,02,07,46,10.80
2012,10,02,07,47,10.80
2012,10,02,07,48,10.80
2012,10,02,07,49,10.80
2012,10,02,07,50,10.80
2012,10,02,07,51,10.80
2012,10,02,07,52,10.80
2012,10,02,07,53,10.80
2012,10,02,07,54,10.80
2012,10,02,07,55,10.80
2012,10,02,07,56,10.80
2012,10,02,07,57,10.80
2012,10,02,07,58,10.80
2012,10,02,07,59,10.80
2012,10,02,08,00,10.80
2012,10,02,08,01,10.80
2012,10,02,08,02,10.70
2012,10,02,08,03,10.70
2012,10,02,08,04,10.70
2012,10,02,08,05,10.70
2012,10,02,08,06,10.70
2012,10,02,08,07,10.60
2012,10,02,08,08,10.60
2012,10,02,08,09,10.60
2012,10,02,08,10,10.60
2012,10,02,08,11,10.60
2012,10,02,08,12,10.60
2012,10,02,08,13,10.60
2012,10,02,08,14,10.60
2012,10,02,08,15,10.60
2012,10,02,08,16,10.60
2012,10,02,08,17,10.60
2012,10,02,08,18,10.60
2012,10,02,08,19,10.60
2012,10,02,08,20,10.60
2012,10,02,08,21,10.60
2012,10,02,08,22,10.60
2012,10,02,08,23,10.60
2012,10,02,08,24,10.70
2012,10,02,08,25,10.70
2012,10,02,08,26,10.70
2012,10,02,08,27,10.70
2012,10,02,08,28,10.70
2012,10,02,08,29,10.70
2012,10,02,08,30,10.80
2012,10,02,08,31,10.80
2012,10,02,08,32,10.80
2012,10,02,08,33,10.80
2012,10,02,08,34,10.80
2012,10,02,08,35,10.90
2012,10,02,08,36,10.90
2012,10,02,08,37,10.90
2012,10,02,08,38,10.90
2012,10,02,08,39,10.90
2012,10,02,08,40,11.00
2012,10,02,08,41,11.00
2012,10,02,08,42,11.00
2012,10,02,08,43,11.00
2012,10,02,08,44,11.00
2012,10,02,08,45,11.10
2012,10,02,08,46,11.10
2012,10,02,08,47,11.10
2012,10,02,08,48,11.10
2012,10,02,08,49,11.20
2012,10,02,08,50,11.20
2012,10,02,08,51,11.20
2012,10,02,08,52,11.20
2012,10,02,08,53,11.20
2012,10,02,08,54,11.20
2012,10,02,08,55,11.20
2012,10,02,08,56,11.20
2012,10,02,08,57,11.20
2012,10,02,08,58,11.30
2012,10,02,08,59,11.30
2012,10,02,09,00,11.30
2012,10,02,09,01,11.30
2012,10,02,09,02,11.40
2012,10,02,09,03,11.40
2012,10,02,09,04,11.40
2012,10,02,09,05,11.50
2012,10,02,09,06,11.50
2012,10,02,09,07,11.50
2012,10,02,09,08,11.60
2012,10,02,09,09,11.60
2012,10,02,09,10,11.60
2012,10,02,09,11,11.70
2012,10,02,09,12,11.70
2012,10,02,09,13,11.80
2012,10,02,09,14,11.80
2012,10,02,09,15,11.80
2012,10,02,09,16,11.80
2012,10,02,09,17,11.80
2012,10,02,09,18,11.80
2012,10,02,09,19,11.80
2012,10,02,09,20,11.80
2012,10,02,09,21,11.80
2012,10,02,09,22,11.80
2012,10,02,09,23,11.90
2012,10,02,09,24,11.90
2012,10,02,09,25,11.90
2012,10,02,09,26,11.90
2012,10,02,09,27,11.90
2012,10,02,09,28,11.90
2012,10,02,09,29,11.90
2012,10,02,09,30,12.00
2012,10,02,09,31,12.00
2012,10,02,09,32,12.00
2012,10,02,09,33,12.10
2012,10,02,09,34,12.10
2012,10,02,09,35,12.10
2012,10,02,09,36,12.20
2012,10,02,09,37,12.20
2012,10,02,09,38,12.30
2012,10,02,09,39,12.30
2012,10,02,09,40,12.30
2012,10,02,09,41,12.30
2012,10,02,09,42,12.30
2012,10,02,09,43,12.40
2012,10,02,09,44,12.40
2012,10,02,09,45,12.40
2012,10,02,09,46,12.50
2012,10,02,09,47,12.50
2012,10,02,09,48,12.60
2012,10,02,09,49,12.60
2012,10,02,09,50,12.60
2012,10,02,09,51,12.60
2012,10,02,09,52,12.60
2012,10,02,09,53,12.70
2012,10,02,09,54,12.80
2012,10,02,09,55,12.80
2012,10,02,09,56,12.90
2012,10,02,09,57,13.00
2012,10,02,09,58,13.00
2012,10,02,09,59,13.00
2012,10,02,10,00,12.90
2012,10,02,10,01,12.90
2012,10,02,10,02,12.90
2012,10,02,10,03,12.90
2012,10,02,10,04,13.00
2012,10,02,10,05,13.00
2012,10,02,10,06,13.00
2012,10,02,10,07,13.00
2012,10,02,10,08,13.00
2012,10,02,10,09,13.00
2012,10,02,10,10,13.00
2012,10,02,10,11,13.10
2012,10,02,10,12,13.20
2012,10,02,10,13,13.20
2012,10,02,10,14,13.30
2012,10,02,10,15,13.30
2012,10,02,10,16,13.40
2012,10,02,10,17,13.40
2012,10,02,10,18,13.50
2012,10,02,10,19,13.60
2012,10,02,10,20,13.60
2012,10,02,10,21,13.70
2012,10,02,10,22,13.80
2012,10,02,10,23,13.80
2012,10,02,10,24,13.80
2012,10,02,10,25,13.90
2012,10,02,10,26,13.90
2012,10,02,10,27,13.90
2012,10,02,10,28,14.00
2012,10,02,10,29,14.10
2012,10,02,10,30,14.10
2012,10,02,10,31,14.10
2012,10,02,10,32,14.00
2012,10,02,10,33,14.10
2012,10,02,10,34,14.00
2012,10,02,10,35,14.00
2012,10,02,10,36,13.90
2012,10,02,10,37,13.80
2012,10,02,10,38,13.80
2012,10,02,10,39,13.80
2012,10,02,10,40,13.80
2012,10,02,10,41,13.90
2012,10,02,10,42,13.90
2012,10,02,10,43,14.00
2012,10,02,10,44,14.10
2012,10,02,10,45,14.10
2012,10,02,10,46,14.10
2012,10,02,10,47,14.10
2012,10,02,10,48,14.10
2012,10,02,10,49,14.10
2012,10,02,10,50,14.10
2012,10,02,10,51,14.10
2012,10,02,10,52,14.00
2012,10,02,10,53,14.00
2012,10,02,10,54,14.00
2012,10,02,10,55,13.90
2012,10,02,10,56,13.90
2012,10,02,10,57,13.90
2012,10,02,10,58,13.90
2012,10,02,10,59,13.90
2012,10,02,11,00,13.90
2012,10,02,11,01,13.80
2012,10,02,11,02,13.80
2012,10,02,11,03,13.80
2012,10,02,11,04,13.80
2012,10,02,11,05,13.80
2012,10,02,11,06,13.90
2012,10,02,11,07,13.90
2012,10,02,11,08,13.90
2012,10,02,11,09,13.90
2012,10,02,11,10,13.90
2012,10,02,11,11,14.00
2012,10,02,11,12,14.00
2012,10,02,11,13,14.10
2012,10,02,11,14,14.10
2012,10,02,11,15,14.10
2012,10,02,11,16,14.10
2012,10,02,11,17,14.10
2012,10,02,11,18,14.20
2012,10,02,11,19,14.20
2012,10,02,11,20,14.20
2012,10,02,11,21,14.20
2012,10,02,11,22,14.30
2012,10,02,11,23,14.40
2012,10,02,11,24,14.50
2012,10,02,11,25,14.60
2012,10,02,11,26,14.70
2012,10,02,11,27,14.70
2012,10,02,11,28,14.80
2012,10,02,11,29,14.80
2012,10,02,11,30,14.90
2012,10,02,11,31,15.00
2012,10,02,11,32,15.00
2012,10,02,11,33,15.00
2012,10,02,11,34,15.00
2012,10,02,11,35,15.00
2012,10,02,11,36,15.00
2012,10,02,11,37,15.00
2012,10,02,11,38,15.00
2012,10,02,11,39,15.00
2012,10,02,11,40,15.00
2012,10,02,11,41,15.00
2012,10,02,11,42,15.00
2012,10,02,11,43,15.00
2012,10,02,11,44,15.10
2012,10,02,11,45,15.10
2012,10,02,11,46,15.10
2012,10,02,11,47,15.20
2012,10,02,11,48,15.20
2012,10,02,11,49,15.10
2012,10,02,11,50,15.00
2012,10,02,11,51,15.00
2012,10,02,11,52,15.00
2012,10,02,11,53,15.00
2012,10,02,11,54,14.90
2012,10,02,11,55,14.80
2012,10,02,11,56,14.80
2012,10,02,11,57,14.80
2012,10,02,11,58,14.80
2012,10,02,11,59,14.80
2012,10,02,12,00,14.80
2012,10,02,12,01,14.80
2012,10,02,12,02,14.90
2012,10,02,12,03,15.00
2012,10,02,12,04,15.00
2012,10,02,12,05,15.00
2012,10,02,12,06,15.00
2012,10,02,12,07,15.00
2012,10,02,12,08,15.00
2012,10,02,12,09,15.00
2012,10,02,12,10,15.00
2012,10,02,12,11,15.00
2012,10,02,12,12,15.00
2012,10,02,12,13,15.00
2012,10,02,12,14,15.00
2012,10,02,12,15,15.00
2012,10,02,12,16,15.00
2012,10,02,12,17,15.00
2012,10,02,12,18,15.00
2012,10,02,12,19,15.00
2012,10,02,12,20,15.00
2012,10,02,12,21,14.90
2012,10,02,12,22,14.80
2012,10,02,12,23,14.80
2012,10,02,12,24,14.70
2012,10,02,12,25,14.60
2012,10,02,12,26,14.60
2012,10,02,12,27,14.70
2012,10,02,12,28,14.80
2012,10,02,12,29,14.90
2012,10,02,12,30,15.00
2012,10,02,12,31,15.00
2012,10,02,12,32,15.00
2012,10,02,12,33,15.00
2012,10,02,12,34,15.00
2012,10,02,12,35,15.00
2012,10,02,12,36,15.00
2012,10,02,12,37,15.00
2012,10,02,12,38,15.00
2012,10,02,12,39,15.00
2012,10,02,12,40,15.10
2012,10,02,12,41,15.20
2012,10,02,12,42,15.20
2012,10,02,12,43,15.10
2012,10,02,12,44,15.10
2012,10,02,12,45,15.00
2012,10,02,12,46,15.00
2012,10,02,12,47,15.00
2012,10,02,12,48,15.20
2012,10,02,12,49,15.20
2012,10,02,12,50,15.20
2012,10,02,12,51,15.20
2012,10,02,12,52,15.30
2012,10,02,12,53,15.30
2012,10,02,12,54,15.30
2012,10,02,12,55,15.30
2012,10,02,12,56,15.40
2012,10,02,12,57,15.40
2012,10,02,12,58,15.40
2012,10,02,12,59,15.50
2012,10,02,13,00,15.60
2012,10,02,13,01,15.60
2012,10,02,13,02,15.60
2012,10,02,13,03,15.60
2012,10,02,13,04,15.50
2012,10,02,13,05,15.50
2012,10,02,13,06,15.50
2012,10,02,13,07,15.40
2012,10,02,13,08,15.30
2012,10,02,13,09,15.20
2012,10,02,13,10,15.20
2012,10,02,13,11,15.10
2012,10,02,13,12,15.20
2012,10,02,13,13,15.20
2012,10,02,13,14,15.30
2012,10,02,13,15,15.30
2012,10,02,13,16,15.20
2012,10,02,13,17,15.20
2012,10,02,13,18,15.20
2012,10,02,13,19,15.30
2012,10,02,13,20,15.40
2012,10,02,13,21,15.50
2012,10,02,13,22,15.60
2012,10,02,13,23,15.60
2012,10,02,13,24,15.60
2012,10,02,13,25,15.50
2012,10,02,13,26,15.50
2012,10,02,13,27,15.50
2012,10,02,13,28,15.50
2012,10,02,13,29,15.40
2012,10,02,13,30,15.40
2012,10,02,13,31,15.50
2012,10,02,13,32,15.60
2012,10,02,13,33,15.70
2012,10,02,13,34,15.70
2012,10,02,13,35,15.70
2012,10,02,13,36,15.60
2012,10,02,13,37,15.50
2012,10,02,13,38,15.40
2012,10,02,13,39,15.40
2012,10,02,13,40,15.30
2012,10,02,13,41,15.30
2012,10,02,13,42,15.30
2012,10,02,13,43,15.20
2012,10,02,13,44,15.20
2012,10,02,13,45,15.20
2012,10,02,13,46,15.20
2012,10,02,13,47,15.30
2012,10,02,13,48,15.30
2012,10,02,13,49,15.30
2012,10,02,13,50,15.30
2012,10,02,13,51,15.30
2012,10,02,13,52,15.30
2012,10,02,13,53,15.40
2012,10,02,13,54,15.40
2012,10,02,13,55,15.50
2012,10,02,13,56,15.60
2012,10,02,13,57,15.60
2012,10,02,13,58,15.70
2012,10,02,13,59,15.60
2012,10,02,14,00,15.60
2012,10,02,14,01,15.60
2012,10,02,14,02,15.60
2012,10,02,14,03,15.60
2012,10,02,14,04,15.60
2012,10,02,14,05,15.50
2012,10,02,14,06,15.60
2012,10,02,14,07,15.60
2012,10,02,14,08,15.60
2012,10,02,14,09,15.60
2012,10,02,14,10,15.50
2012,10,02,14,11,15.40
2012,10,02,14,12,15.40
2012,10,02,14,13,15.30
2012,10,02,14,14,15.20
2012,10,02,14,15,15.20
2012,10,02,14,16,15.20
2012,10,02,14,17,15.20
2012,10,02,14,18,15.20
2012,10,02,14,19,15.20
2012,10,02,14,20,15.20
2012,10,02,14,21,15.30
2012,10,02,14,22,15.30
2012,10,02,14,23,15.40
2012,10,02,14,24,15.40
2012,10,02,14,25,15.50
2012,10,02,14,26,15.60
2012,10,02,14,27,15.60
2012,10,02,14,28,15.60
2012,10,02,14,29,15.50
2012,10,02,14,30,15.50
2012,10,02,14,31,15.50
2012,10,02,14,32,15.50
2012,10,02,14,33,15.60
2012,10,02,14,34,15.60
2012,10,02,14,35,15.60
2012,10,02,14,36,15.50
2012,10,02,14,37,15.50
2012,10,02,14,38,15.50
2012,10,02,14,39,15.50
2012,10,02,14,40,15.40
2012,10,02,14,41,15.40
2012,10,02,14,42,15.30
2012,10,02,14,43,15.20
2012,10,02,14,44,15.20
2012,10,02,14,45,15.20
2012,10,02,14,46,15.20
2012,10,02,14,47,15.20
2012,10,02,14,48,15.20
2012,10,02,14,49,15.30
2012,10,02,14,50,15.30
2012,10,02,14,51,15.30
2012,10,02,14,52,15.30
2012,10,02,14,53,15.40
2012,10,02,14,54,15.40
2012,10,02,14,55,15.40
2012,10,02,14,56,15.50
2012,10,02,14,57,15.50
2012,10,02,14,58,15.50
2012,10,02,14,59,15.50
2012,10,02,15,00,15.60
2012,10,02,15,01,15.50
2012,10,02,15,02,15.50
2012,10,02,15,03,15.40
2012,10,02,15,04,15.40
2012,10,02,15,05,15.40
2012,10,02,15,06,15.50
2012,10,02,15,07,15.60
2012,10,02,15,08,15.60
2012,10,02,15,09,15.70
2012,10,02,15,10,15.70
2012,10,02,15,11,15.70
2012,10,02,15,12,15.70
2012,10,02,15,13,15.70
2012,10,02,15,14,15.60
2012,10,02,15,15,15.60
2012,10,02,15,16,15.50
2012,10,02,15,17,15.50
2012,10,02,15,18,15.40
2012,10,02,15,19,15.30
2012,10,02,15,20,15.30
2012,10,02,15,21,15.20
2012,10,02,15,22,15.10
2012,10,02,15,23,15.00
2012,10,02,15,24,15.00
2012,10,02,15,25,15.00
2012,10,02,15,26,14.80
2012,10,02,15,27,14.70
2012,10,02,15,28,14.60
2012,10,02,15,29,14.50
2012,10,02,15,30,14.40
2012,10,02,15,31,14.40
2012,10,02,15,32,14.30
2012,10,02,15,33,14.30
2012,10,02,15,34,14.20
2012,10,02,15,35,14.20
2012,10,02,15,36,14.20
2012,10,02,15,37,14.20
2012,10,02,15,38,14.20
2012,10,02,15,39,14.30
2012,10,02,15,40,14.30
2012,10,02,15,41,14.40
2012,10,02,15,42,14.50
2012,10,02,15,43,14.60
2012,10,02,15,44,14.70
2012,10,02,15,45,14.70
2012,10,02,15,46,14.80
2012,10,02,15,47,14.90
2012,10,02,15,48,15.00
2012,10,02,15,49,15.00
2012,10,02,15,50,15.00
2012,10,02,15,51,15.00
2012,10,02,15,52,15.00
2012,10,02,15,53,15.00
2012,10,02,15,54,15.00
2012,10,02,15,55,15.00
2012,10,02,15,56,15.00
2012,10,02,15,57,15.00
2012,10,02,15,58,15.00
2012,10,02,15,59,15.00
2012,10,02,16,00,15.00
2012,10,02,16,01,15.00
2012,10,02,16,02,15.00
2012,10,02,16,03,15.00
2012,10,02,16,04,15.00
2012,10,02,16,05,15.00
2012,10,02,16,06,15.10
2012,10,02,16,07,15.10
2012,10,02,16,08,15.10
2012,10,02,16,09,15.00
2012,10,02,16,10,15.00
2012,10,02,16,11,15.00
2012,10,02,16,12,15.00
2012,10,02,16,13,15.00
2012,10,02,16,14,15.00
2012,10,02,16,15,15.00
2012,10,02,16,16,14.90
2012,10,02,16,17,14.90
2012,10,02,16,18,14.90
2012,10,02,16,19,14.80
2012,10,02,16,20,14.80
2012,10,02,16,21,14.90
2012,10,02,16,22,14.90
2012,10,02,16,23,14.90
2012,10,02,16,24,15.00
2012,10,02,16,25,15.00
2012,10,02,16,26,15.00
2012,10,02,16,27,15.00
2012,10,02,16,28,15.00
2012,10,02,16,29,15.00
2012,10,02,16,30,15.00
2012,10,02,16,31,15.00
2012,10,02,16,32,15.00
2012,10,02,16,33,15.00
2012,10,02,16,34,15.00
2012,10,02,16,35,15.00
2012,10,02,16,36,15.00
2012,10,02,16,37,15.00
2012,10,02,16,38,15.00
2012,10,02,16,39,15.00
2012,10,02,16,40,15.00
2012,10,02,16,41,15.00
2012,10,02,16,42,15.00
2012,10,02,16,43,15.00
2012,10,02,16,44,15.00
2012,10,02,16,45,15.00
2012,10,02,16,46,15.00
2012,10,02,16,47,15.00
2012,10,02,16,48,15.00
2012,10,02,16,49,15.00
2012,10,02,16,50,15.00
2012,10,02,16,51,15.00
2012,10,02,16,52,14.90
2012,10,02,16,53,14.90
2012,10,02,16,54,14.90
2012,10,02,16,55,14.80
2012,10,02,16,56,14.80
2012,10,02,16,57,14.80
2012,10,02,16,58,14.80
2012,10,02,16,59,14.80
2012,10,02,17,00,14.80
2012,10,02,17,01,14.80
2012,10,02,17,02,14.70
2012,10,02,17,03,14.80
2012,10,02,17,04,14.70
2012,10,02,17,05,14.70
2012,10,02,17,06,14.70
2012,10,02,17,07,14.70
2012,10,02,17,08,14.70
2012,10,02,17,09,14.70
2012,10,02,17,10,14.70
2012,10,02,17,11,14.70
2012,10,02,17,12,14.70
2012,10,02,17,13,14.70
2012,10,02,17,14,14.70
2012,10,02,17,15,14.60
2012,10,02,17,16,14.60
2012,10,02,17,17,14.60
2012,10,02,17,18,14.70
2012,10,02,17,19,14.70
2012,10,02,17,20,14.70
2012,10,02,17,21,14.70
2012,10,02,17,22,14.80
2012,10,02,17,23,14.80
2012,10,02,17,24,14.80
2012,10,02,17,25,14.80
2012,10,02,17,26,14.80
2012,10,02,17,27,14.80
2012,10,02,17,28,14.80
2012,10,02,17,29,14.80
2012,10,02,17,30,14.80
2012,10,02,17,31,14.70
2012,10,02,17,32,14.70
2012,10,02,17,33,14.60
2012,10,02,17,34,14.60
2012,10,02,17,35,14.60
2012,10,02,17,36,14.60
2012,10,02,17,37,14.70
2012,10,02,17,38,14.70
2012,10,02,17,39,14.70
2012,10,02,17,40,14.60
2012,10,02,17,41,14.60
2012,10,02,17,42,14.60
2012,10,02,17,43,14.50
2012,10,02,17,44,14.40
2012,10,02,17,45,14.40
2012,10,02,17,46,14.30
2012,10,02,17,47,14.20
2012,10,02,17,48,14.10
2012,10,02,17,49,14.10
2012,10,02,17,50,14.00
2012,10,02,17,51,13.90
2012,10,02,17,52,13.90
2012,10,02,17,53,13.90
2012,10,02,17,54,13.80
2012,10,02,17,55,13.80
2012,10,02,17,56,13.80
2012,10,02,17,57,13.80
2012,10,02,17,58,13.80
2012,10,02,17,59,13.70
2012,10,02,18,00,13.70
2012,10,02,18,01,13.70
2012,10,02,18,02,13.60
2012,10,02,18,03,13.60
2012,10,02,18,04,13.60
2012,10,02,18,05,13.50
2012,10,02,18,06,13.50
2012,10,02,18,07,13.50
2012,10,02,18,08,13.50
2012,10,02,18,09,13.40
2012,10,02,18,10,13.40
2012,10,02,18,11,13.40
2012,10,02,18,12,13.40
2012,10,02,18,13,13.30
2012,10,02,18,14,13.30
2012,10,02,18,15,13.20
2012,10,02,18,16,13.20
2012,10,02,18,17,13.10
2012,10,02,18,18,13.10
2012,10,02,18,19,13.10
2012,10,02,18,20,13.00
2012,10,02,18,21,13.00
2012,10,02,18,22,12.90
2012,10,02,18,23,12.90
2012,10,02,18,24,12.80
2012,10,02,18,25,12.80
2012,10,02,18,26,12.80
2012,10,02,18,27,12.80
2012,10,02,18,28,12.70
2012,10,02,18,29,12.70
2012,10,02,18,30,12.70
2012,10,02,18,31,12.60
2012,10,02,18,32,12.60
2012,10,02,18,33,12.60
2012,10,02,18,34,12.60
2012,10,02,18,35,12.50
2012,10,02,18,36,12.50
2012,10,02,18,37,12.50
2012,10,02,18,38,12.40
2012,10,02,18,39,12.40
2012,10,02,18,40,12.40
2012,10,02,18,41,12.40
2012,10,02,18,42,12.30
2012,10,02,18,43,12.30
2012,10,02,18,44,12.30
2012,10,02,18,45,12.30
2012,10,02,18,46,12.20
2012,10,02,18,47,12.20
2012,10,02,18,48,12.20
2012,10,02,18,49,12.10
2012,10,02,18,50,12.10
2012,10,02,18,51,12.10
2012,10,02,18,52,12.10
2012,10,02,18,53,12.10
2012,10,02,18,54,12.10
2012,10,02,18,55,12.10
2012,10,02,18,56,12.00
2012,10,02,18,57,12.00
2012,10,02,18,58,12.00
2012,10,02,18,59,12.00
2012,10,02,19,00,12.00
2012,10,02,19,01,11.90
2012,10,02,19,02,11.90
2012,10,02,19,03,11.90
2012,10,02,19,04,11.90
2012,10,02,19,05,11.90
2012,10,02,19,06,11.90
2012,10,02,19,07,11.90
2012,10,02,19,08,11.90
2012,10,02,19,09,11.90
2012,10,02,19,10,11.90
2012,10,02,19,11,11.90
2012,10,02,19,12,11.90
2012,10,02,19,13,11.90
2012,10,02,19,14,11.90
2012,10,02,19,15,11.90
2012,10,02,19,16,11.90
2012,10,02,19,17,12.00
2012,10,02,19,18,12.00
2012,10,02,19,19,12.00
2012,10,02,19,20,12.00
2012,10,02,19,21,12.00
2012,10,02,19,22,12.10
2012,10,02,19,23,12.10
2012,10,02,19,24,12.10
2012,10,02,19,25,12.10
2012,10,02,19,26,12.10
2012,10,02,19,27,12.10
2012,10,02,19,28,12.10
2012,10,02,19,29,12.10
2012,10,02,19,30,12.10
2012,10,02,19,31,12.10
2012,10,02,19,32,12.20
2012,10,02,19,33,12.20
2012,10,02,19,34,12.20
2012,10,02,19,35,12.20
2012,10,02,19,36,12.20
2012,10,02,19,37,12.20
2012,10,02,19,38,12.20
2012,10,02,19,39,12.20
2012,10,02,19,40,12.20
2012,10,02,19,41,12.20
2012,10,02,19,42,12.20
2012,10,02,19,43,12.20
2012,10,02,19,44,12.20
2012,10,02,19,45,12.20
2012,10,02,19,46,12.20